CZ-6A DEB

Satellite information

Favourite Embed

Satellite Type and Status

DEBRISIN ORBIT

Key statistics

Satellite CZ-6A DEB at a glance.

Uptime

399

Days in orbit

Revolutions

≈ 14.2

Per day

Orbit

LEO

Low Earth Orbit

Inclination

89.0

Latest

Satellite identification and parameters

Extended collection of information and parameters for CZ-6A DEB.

Object identification

Identified? True

Debris? True

Object name: CZ-6A DEB

International designator: 2024-140CZ

Object number (NORAD): 60696

Object ID (CCSDS): 60696

Country: PEOPLES REPUBLIC OF CHINA (PRC)

Current information (Y/N): Y

RCS size: MEDIUM

Orbital parameters

Period: 101.734 minutes

Inclination: 89.0386 deg

SMA: 7218.899 km

Apoapsis: 886.268 km

Periapsis: 795.259 km

RAAN: 308.4345 deg

Eccentricy: 0.00630356

Argument of periapsis: 27.8561 deg

Mean anomaly: 332.5978 deg

Mean motion: 14.15455907 rev/day

Mean motion (dot): 0.00000298 rev/day2

B* drag term: 0.0001428964 1/REarth

Two-line elements (TLE)

Creation date: Sept. 8, 2025, 6:18 p.m.

Reference frame: TEME

Reference center: EARTH

Epoch: Sept. 8, 2025, 2:13 p.m. UTC

TLE line 0: 0 CZ-6A DEB

TLE line 1: 1 60696U 24140CZ 25251.59236411 .00000298 00000-0 14290-3 0 9992

TLE line 2: 2 60696 89.0386 308.4345 0063036 27.8561 332.5978 14.15455907 56107

Live tracking on map

Real-time ground track for satellite CZ-6A DEB.

In-orbit conjunctions

A list of the most updated potential collisions computed for object CZ-6A DEB.

Target Orbit TCA Probability of collision Miss distance Type
NOAA 16 DEB SSO 2025-04-01 05:00:29 0.0001131014 91.0 (m) DEBRIS
FENGYUN 1C DEB SSO 2025-03-06 09:27:10 0.000441709 20.0 (m) DEBRIS
DMSP 5D-2 F14 DEB SSO 2025-02-16 02:49:45 0.0003502358 176.0 (m) DEBRIS
FENGYUN 1C DEB SSO 2024-11-17 07:15:11 0.005181493 101.0 (m) DEBRIS
FENGYUN 1C DEB SSO 2024-10-11 22:06:35 0.0001917815 745.0 (m) DEBRIS

Associated space launch

18 Low Earth Orbit communication satellites with Ku, Q and V band payloads for the G60 constellation operated by Shanghai Spacecom Satellite Technology (SSST) with funding backed by the Shanghai local government. Initial constellation will consist of 1296 satellites by 2027 with long term plans to expand it to 12000 satellites.

CZ-6A DEB was lifted into orbit during the mission ‘Long March 6A | G60 Polar Group 01’, on board a Long March 6A space rocket.

The launch took place on Aug. 6, 2024, 6:42 a.m. from Launch Complex 9A.

For more information about the launch, click the button.

Launch to space Long March 6A | G60 Polar Group 01
Long March 6A | G60 Polar Group 01

Agency: N/A

Status: Launch Successful

Launch date: Aug. 6, 2024, 6:42 a.m. UTC

Rocket: Long March 6A

Launch pad: Launch Complex 9A

Location: Taiyuan Satellite Launch Center, People's Republic of China

...

Latest news about this satellite

News about space launch
Brightness of first Chinese broadband constellation satellites alarms astronomers

The first satellites of a Chinese broadband constellation are significantly brighter than those of Western systems, posing a new challenge for astronomers.

News about space launch
Chinese rocket stage breaks up into cloud of more than 700 pieces of space debris

HELSINKI — A Chinese Long March 6A rocket’s upper stage has fragmented into a cloud of over 700 pieces of space debris, adding to concerns about long-term orbital safety. China […]

News about space launch
China's Thousand Sails Megaconstellation Kicks Off with Dangerous Debris Field

China's Thousand Sails Megaconstellation Kicks Off with Dangerous Debris Field


Newsletter sign-up

Weekly statistics, charts and insights to help you stay on top of the space industry.